Погода в Красногвардейском

Россия / Республика Крым     45°29′41″N   34°17′40″E
темп.,
°C
ветер,
м/с
пор.,
м/с
влажн.,
%
обл.,
%
осадки,
мм/ч
давл.,
гПа
погр.,
м
23 января, сб
сб2300:00+4ю478666 0.0 1021135
03:00+5ю4108582 0.0 1020175
06:00+4ююв478094 0.0 1019124
09:00+5ююв4107989 0.0 1019190
12:00+11ююз6136473 0.0 1019839
15:00+12юз7126487 0.0 10171025
18:00+8ю4107692 0.0 1017202
21:00+7ююв467992 0.0 101795
24 января, вс
вс2400:00+7ююв4578100 0.0 101785
03:00+6юв348188 0.0 101665
06:00+5ююв3476100 0.0 101451
09:00+5юв5868100 0.0 1014140
12:00+10ююв3656100 0.0 1013301
15:00+13юз8114898 0.0 10121292
18:00+10ю41173100 0.1 1012399
21:00+10ю51469100 0.1 1012654
25 января, пн
пн2500:00+10ю51372100 0.1 1012449
03:00+9ю6136693 0.1 1012368
06:00+8ю5127098 0.0 1011216
09:00+8ююв4107399 0.0 1011177
12:00+12ююв4964100 0.0 1010399
15:00+13юв71158100 0.0 1007642
18:00+10ююв61267100 0.0 1005372
21:00+11ю91873100 0.9 10041001
26 января, вт
вт2600:00+10ю8187142 0.0 1004854
03:00+9ююз8167721 0.0 1005689
06:00+8ю6167720 0.0 1005549
09:00+7з7128860 1.6 1005688
12:00+8юз111664100 1.8 10081434
15:00+8зюз10135768 1.8 10101310
18:00+5юз4106564 0.0 1012429
21:00+4зюз497782 0.0 1014332
27 января, ср
ср2700:00+3зюз2469100 0.0 1015100
03:00+3ююз2261100 0.0 101534
06:00+3ююз1264100 0.0 101422
09:00+3сз1166100 0.0 101522
12:00+5ссв2253100 0.0 1014424
15:00+6ссв4552100 0.0 1012887
18:00+3ссв3757100 0.0 1011341
21:00+3ссв5957100 0.1 1010553